CALSPHERE 1 1 00900U 64063C 26161.50292166 .00000531 00000+0 53127-3 0 9994 2 00900 90.2237 71.6135 0024772 318.7338 220.1675 13.76616135 70506 CALSPHERE 2 1 00902U 64063E 26161.24101850 .00000018 00000+0 14245-4 0 9995 2 00902 90.2378 75.6282 0016675 245.3974 244.4723 13.52899921855329 LCS 1 1 01361U 65034C 26161.10333148 .00000021 00000+0 16303-2 0 9995 2 01361 32.1358 193.8479 0012355 97.0814 263.1089 9.89310684209188 TEMPSAT 1 1 01512U 65065E 26161.62279956 .00000031 00000+0 45430-4 0 9996 2 01512 89.9991 212.5933 0067641 266.9865 217.6788 13.33593759959175 CALSPHERE 4A 1 01520U 65065H 26161.66044362 .00000119 00000+0 20835-3 0 9998 2 01520 89.8979 122.5521 0071600 120.8462 61.5565 13.36277156961831 OPS 5712 (P/L 160) 1 02826U 67053A 26161.55004383 .00006320 00000+0 89212-3 0 9998 2 02826 69.9175 54.5631 0000873 269.2646 90.8401 14.77631879 65257 OPS 5712 (P/L 153) 1 02874U 67053H 26161.60689068 .00000034 00000+0 62528-4 0 9994 2 02874 69.9725 129.4106 0008870 220.7287 139.3157 13.96827407 5871 RIGIDSPHERE 2 (LCS 4) 1 05398U 71067E 26161.58055296 .00000567 00000+0 17892-3 0 9999 2 05398 87.6211 340.6452 0057645 254.2136 105.2702 14.37859812872930 COSMOS 2493 (SKRL-756 1) 1 39490U 13078A 26161.62368574 .00002692 00000+0 20256-3 0 9997 2 39490 82.4123 267.6069 0011435 265.2526 94.7393 15.02124970676976 COSMOS 2494 (SKRL-756 2) 1 39491U 13078B 26161.63343812 .00002668 00000+0 18660-3 0 9996 2 39491 82.4125 257.0142 0015502 222.2971 137.7061 15.04830397677824